THOR ABLESTAR DEB, 6842

Orbit data source: Space-Track

THOR ABLESTAR DEB, 6842 is space debris in LEO originally from a launch on Thu, 29 Jun 1961 UTC launched from the Air Force Eastern Test Range (AFETR). Debris objects in space refer to the collection of defunct objects orbiting the Earth. Examples of debris include non-operational satellites, rocket bodies, and fragments generated from explosions, collisions, or faulty payload assembly.

Loading next visibility...
Identifier
6842, 1961-015KP
Orbit
LEO
Country
Flag of USUS
Related business
Manufacturer
Unknown
Mission
Spacecraft
Bus & Motor
Unknown
Mass
Unknown
Launch date (UTC)
1961-06-29 (65 years ago)
Launch vehicle
Unknown
Launch site
Air Force Eastern Test Range (AFETR)
Object type
Payload
Rocket body
Debris
Shape & HBR
Unknown shape, 0.1 m
Radar Cross Section
Small (<0.1 m²)

Expand to show TLE details & history
Last TLE update: 2 days ago

TLE from 2 days ago
0 THOR ABLESTAR DEB
1 06842U 61015KP  26125.68345968  .00000302  00000-0  11517-2 0  9990
2 06842  66.7316 221.3969 0652617 189.8002 326.6197 12.45727551327126
Epoch: 2026-05-05T16:24Z
TLE epoch observation values (Epoch: 2026-05-05T16:24:10.916Z)
Latitude
25.58836°
Longitude
-80.02411°
Altitude
1,067.198 km
Speed
7.513 km/s
True Right ascension
01h 58m 18s
True Declination
25° 27' 37"
Sunlit
Object was in daylight at epoch
Visualization orbit readout
Latitude
Unknown
Longitude
Unknown
Altitude
Unknown
Speed
Unknown
Apparent Right ascension
Unknown
Apparent Declination
Unknown
Sunlit
N/A
Visualization observer readout
Local Sidereal Time
18:15:43
Azimuth
Unknown
Elevation
Unknown
Doppler factor
Unknown
Orbital elements
Apogee altitude
1,993.818 km
Perigee altitude
968.027 km
Semi-major axis
7,859.059 km
Eccentricity
0.06526
Inclination
66.7316°
RAAN
221.3969°
Arg. of periapsis
189.8002°
True anomaly
322.20969°
Mean anomaly
326.6197°
Eccentric anomaly
324.44543°
Mean motion
3.11521 °/min
Orbital period
115.56 mins
BSTAR
0.0011517
Loading maneuver chart data...
Computing Atmospheric mass density...
Loading historical data...
Loading historical data...
Loading historical data...
Loading historical data...
Loading historical data...
Loading historical data...
Loading historical data...

Documentation

Showing up to 5 results
|